Time,TemperatureF,DewpointF,PressureIn,WindDirection,WindDirectionDegrees,WindSpeedMPH,WindSpeedGustMPH,Humidity,HourlyPrecipIn,Conditions,Clouds,dailyrainin,SoftwareType,DateUTC
2013-08-20 05:12:00,60.0,52.0,30.14,ENE,62,4.0,7.0,76,0.00,,,0.00,,2013-08-20 12:12:00,
2013-08-20 05:21:00,59.0,52.0,30.14,ENE,61,4.0,7.0,77,0.00,,,0.00,,2013-08-20 12:21:00,
2013-08-20 05:41:00,59.0,52.0,30.14,ENE,62,4.0,7.0,77,0.00,,,0.00,,2013-08-20 12:41:00,
2013-08-20 05:52:00,59.0,52.0,30.14,East,84,4.0,6.0,78,0.00,,,0.00,,2013-08-20 12:52:00,
2013-08-20 06:11:00,59.0,52.0,30.14,ENE,68,4.0,8.0,79,0.00,,,0.00,,2013-08-20 13:11:00,
2013-08-20 06:21:00,58.0,52.0,30.14,ENE,57,4.0,10.0,80,0.00,,,0.00,,2013-08-20 13:21:00,
2013-08-20 06:41:00,59.0,53.0,30.15,NE,50,3.0,9.0,80,0.00,,,0.00,,2013-08-20 13:41:00,
2013-08-20 06:52:00,59.0,53.0,30.15,NE,50,4.0,7.0,80,0.00,,,0.00,,2013-08-20 13:52:00,
2013-08-20 07:11:00,59.0,52.0,30.15,NE,56,5.0,8.0,79,0.00,,,0.00,,2013-08-20 14:11:00,
2013-08-20 07:21:00,59.0,52.0,30.16,East,79,3.0,6.0,79,0.00,,,0.00,,2013-08-20 14:21:00,
2013-08-20 07:52:00,60.0,53.0,30.16,NE,56,3.0,6.0,78,0.00,,,0.00,,2013-08-20 14:52:00,
2013-08-20 08:11:00,61.0,53.0,30.16,ENE,78,3.0,7.0,76,0.00,,,0.00,,2013-08-20 15:11:00,
2013-08-20 08:22:00,61.0,53.0,30.16,North,359,2.0,9.0,76,0.00,,,0.00,,2013-08-20 15:22:00,
2013-08-20 08:43:00,62.0,54.0,30.16,ENE,77,4.0,7.0,75,0.00,,,0.00,,2013-08-20 15:43:00,
2013-08-20 08:53:00,62.0,54.0,30.16,NE,38,2.0,7.0,75,0.00,,,0.00,,2013-08-20 15:53:00,
2013-08-20 09:15:00,62.0,53.0,30.16,ENE,62,2.0,5.0,73,0.00,,,0.00,,2013-08-20 16:15:00,
2013-08-20 09:30:00,-999.0,-99.9,30.16,North,352,2.0,7.0,72,0.00,,,0.00,,2013-08-20 16:30:00,
2013-08-20 09:42:00,63.0,53.0,30.16,NNW,340,4.0,6.0,70,0.00,,,0.00,,2013-08-20 16:42:00,
2013-08-20 09:52:00,63.0,53.0,30.16,NNE,19,3.0,6.0,69,0.00,,,0.00,,2013-08-20 16:52:00,
2013-08-20 10:12:00,64.0,54.0,30.16,NNE,26,3.0,9.0,69,0.00,,,0.00,,2013-08-20 17:12:00,
2013-08-20 10:24:00,64.0,53.0,30.16,NNW,337,5.0,9.0,67,0.00,,,0.00,,2013-08-20 17:24:00,
2013-08-20 10:43:00,64.0,54.0,30.16,NNW,331,5.0,12.0,69,0.00,,,0.00,,2013-08-20 17:43:00,
2013-08-20 10:52:00,64.0,54.0,30.17,NNW,331,6.0,9.0,69,0.00,,,0.00,,2013-08-20 17:52:00,
2013-08-20 11:12:00,64.0,53.0,30.16,NW,325,8.0,13.0,68,0.00,,,0.00,,2013-08-20 18:12:00,
2013-08-20 11:21:00,64.0,53.0,30.16,NW,325,8.0,13.0,68,0.00,,,0.00,,2013-08-20 18:21:00,
2013-08-20 11:52:00,66.0,55.0,30.16,NW,321,6.0,14.0,68,0.00,,,0.00,,2013-08-20 18:52:00,
2013-08-20 12:11:00,66.0,55.0,30.16,North,354,7.0,11.0,68,0.00,,,0.00,,2013-08-20 19:11:00,
2013-08-20 12:21:00,67.0,56.0,30.15,WNW,288,6.0,16.0,67,0.00,,,0.00,,2013-08-20 19:21:00,
2013-08-20 12:41:00,67.0,55.0,30.15,NW,311,10.0,15.0,65,0.00,,,0.00,,2013-08-20 19:41:00,
2013-08-20 12:52:00,68.0,55.0,30.14,NW,321,8.0,14.0,64,0.00,,,0.00,,2013-08-20 19:52:00,
2013-08-20 13:11:00,68.0,55.0,30.14,North,349,10.0,14.0,63,0.00,,,0.00,,2013-08-20 20:11:00,
2013-08-20 13:21:00,69.0,55.0,30.14,NNW,332,8.0,15.0,62,0.00,,,0.00,,2013-08-20 20:21:00,
2013-08-20 13:42:00,69.0,56.0,30.14,NNW,338,7.0,13.0,63,0.00,,,0.00,,2013-08-20 20:42:00,
2013-08-20 13:52:00,68.0,55.0,30.14,NW,308,9.0,16.0,64,0.00,,,0.00,,2013-08-20 20:52:00,
2013-08-20 14:11:00,69.0,56.0,30.14,NNW,333,7.0,15.0,63,0.00,,,0.00,,2013-08-20 21:11:00,
2013-08-20 14:22:00,69.0,55.0,30.13,NNW,343,8.0,13.0,62,0.00,,,0.00,,2013-08-20 21:22:00,
2013-08-20 14:44:00,70.0,55.0,30.14,NW,318,7.0,12.0,60,0.00,,,0.00,,2013-08-20 21:44:00,
2013-08-20 14:55:00,70.0,55.0,30.13,NNE,20,7.0,11.0,59,0.00,,,0.00,,2013-08-20 21:55:00,
2013-08-20 15:14:00,70.0,55.0,30.12,NW,305,6.0,13.0,60,0.00,,,0.00,,2013-08-20 22:14:00,
2013-08-20 15:24:00,70.0,54.0,30.12,NW,305,7.0,15.0,57,0.00,,,0.00,,2013-08-20 22:24:00,
2013-08-20 15:42:00,71.0,54.0,30.12,WNW,302,5.0,17.0,55,0.00,,,0.00,,2013-08-20 22:42:00,
2013-08-20 15:53:00,72.0,53.0,30.12,NW,308,7.0,12.0,51,0.00,,,0.00,,2013-08-20 22:53:00,
2013-08-20 16:12:00,73.0,53.0,30.11,NNE,13,6.0,12.0,49,0.00,,,0.00,,2013-08-20 23:12:00,
2013-08-20 16:22:00,73.0,53.0,30.11,North,355,6.0,10.0,49,0.00,,,0.00,,2013-08-20 23:22:00,
2013-08-20 16:42:00,73.0,52.0,30.10,ENE,58,6.0,14.0,47,0.00,,,0.00,,2013-08-20 23:42:00,
2013-08-20 16:53:00,72.0,50.0,30.11,NW,305,8.0,13.0,46,0.00,,,0.00,,2013-08-20 23:53:00,
2013-08-20 17:12:00,73.0,51.0,30.10,ENE,58,5.0,10.0,46,0.00,,,0.00,,2013-08-21 00:12:00,
2013-08-20 17:22:00,73.0,52.0,30.10,NNE,23,6.0,11.0,47,0.00,,,0.00,,2013-08-21 00:22:00,
2013-08-20 17:42:00,73.0,52.0,30.09,NNE,19,6.0,11.0,47,0.00,,,0.00,,2013-08-21 00:42:00,
2013-08-20 17:52:00,73.0,50.0,30.09,NW,322,6.0,12.0,45,0.00,,,0.00,,2013-08-21 00:52:00,
2013-08-20 18:11:00,72.0,49.0,30.09,NNE,13,7.0,14.0,45,0.00,,,0.00,,2013-08-21 01:11:00,
2013-08-20 18:21:00,73.0,50.0,30.09,North,359,7.0,13.0,45,0.00,,,0.00,,2013-08-21 01:21:00,
2013-08-20 18:42:00,72.0,50.0,30.08,NE,36,6.0,15.0,46,0.00,,,0.00,,2013-08-21 01:42:00,
2013-08-20 18:52:00,72.0,52.0,30.08,NNW,330,4.0,10.0,49,0.00,,,0.00,,2013-08-21 01:52:00,
2013-08-20 19:12:00,71.0,51.0,30.07,NW,321,4.0,11.0,50,0.00,,,0.00,,2013-08-21 02:12:00,
2013-08-20 19:22:00,70.0,50.0,30.07,NNW,329,6.0,11.0,49,0.00,,,0.00,,2013-08-21 02:22:00,
2013-08-20 19:42:00,70.0,51.0,30.07,WNW,302,7.0,19.0,51,0.00,,,0.00,,2013-08-21 02:42:00,
2013-08-20 19:52:00,69.0,50.0,30.06,NW,310,7.0,12.0,50,0.00,,,0.00,,2013-08-21 02:52:00,
2013-08-20 20:12:00,69.0,50.0,30.07,NW,323,8.0,12.0,51,0.00,,,0.00,,2013-08-21 03:12:00,
2013-08-20 20:22:00,68.0,51.0,30.07,NNW,340,4.0,8.0,55,0.00,,,0.00,,2013-08-21 03:22:00,
2013-08-20 20:44:00,66.0,50.0,30.07,NNW,338,5.0,9.0,57,0.00,,,0.00,,2013-08-21 03:44:00,
2013-08-20 20:55:00,66.0,51.0,30.07,NNW,329,3.0,9.0,59,0.00,,,0.00,,2013-08-21 03:55:00,
2013-08-20 21:13:00,65.0,51.0,30.08,NNE,32,5.0,10.0,60,0.00,,,0.00,,2013-08-21 04:13:00,
2013-08-20 21:23:00,65.0,51.0,30.08,NNE,32,5.0,10.0,60,0.00,,,0.00,,2013-08-21 04:23:00,
2013-08-20 21:44:00,65.0,51.0,30.08,NE,34,6.0,9.0,61,0.00,,,0.00,,2013-08-21 04:44:00,
2013-08-20 21:54:00,65.0,51.0,30.09,NNE,25,4.0,7.0,61,0.00,,,0.00,,2013-08-21 04:54:00,
2013-08-20 22:12:00,64.0,50.0,30.09,NNE,28,3.0,7.0,61,0.00,,,0.00,,2013-08-21 05:12:00,
2013-08-20 22:22:00,64.0,50.0,30.08,NE,37,2.0,5.0,61,0.00,,,0.00,,2013-08-21 05:22:00,
2013-08-20 22:43:00,64.0,50.0,30.08,NE,40,4.0,7.0,61,0.00,,,0.00,,2013-08-21 05:43:00,
2013-08-20 22:52:00,64.0,51.0,30.08,NE,40,5.0,9.0,62,0.00,,,0.00,,2013-08-21 05:52:00,
2013-08-20 23:12:00,63.0,50.0,30.08,NE,39,3.0,9.0,62,0.00,,,0.00,,2013-08-21 06:12:00,
2013-08-20 23:22:00,63.0,50.0,30.08,NNE,28,5.0,9.0,63,0.00,,,0.00,,2013-08-21 06:22:00,
2013-08-20 23:42:00,62.0,50.0,30.09,NE,44,5.0,7.0,64,0.00,,,0.00,,2013-08-21 06:42:00,
2013-08-20 23:52:00,62.0,50.0,30.09,ENE,62,5.0,8.0,64,0.00,,,0.00,,2013-08-21 06:52:00,